Location: Launois
(49.6535°N, 4.5395°E)
Time: 01:05:24
(UTC+00:00)

CZ-2D R/B - Pass Details

Date: 11 August 2024
Orbit: 790 x 842 km, 98.8° (Epoch: 07 September)

Event Time Altitude Azimuth Distance (km) Brightness Sun altitude
Rises 02:52:08 0° 9° (N) 3,325 6.2 -13.5°
Reaches altitude 10° 02:54:36 10° 1° (N) 2,397 5.2 -13.2°
Maximum altitude 02:59:24 36° 296° (WNW) 1,261 2.9 -12.6°
Enters shadow 03:03:03 16° 238° (WSW) 2,001 3.5 -12.2°
